Location: Augustenthal
(51.7167°N, 10.2833°E)
Time: 04:23:16
(UTC+00:00)

Cosmos 1782 Rocket - Pass Details

Date: 18 May 2021
Orbit: 606 x 633 km, 82.5° (Epoch: 14 June)

Event Time Altitude Azimuth Distance (km) Brightness Sun altitude
Rises 22:30:36 0° 345° (NNW) 2,925 8.8 -17.9°
Reaches altitude 10° 22:32:53 10° 341° (NNW) 2,009 7.4 -17.9°
Maximum altitude 22:37:12 51° 266° (W) 782 4.0 -18.0°
Enters shadow 22:38:56 32° 208° (SSW) 1,075 4.3 -18.1°
